Regional Weather Roundup
Issued by NWS

Home | Current Version | Previous Version | Graphics & Text | Print | Product List | Glossary On
Versions: 1 2 3 4 5 6 7 8 9 10 11 12 13 14 15 16 17 18 19 20 21 22 23 24 25 26 27 28 29 30 31 32 33 34 35 36 37 38 39 40 41 42 43 44 45 46 47 48 49 50
000
ASUS43 KLSX 062007
RWRMO

WEATHER SUMMARY FOR MISSOURI
NATIONAL WEATHER SERVICE SPRINGFIELD MO
300 PM CDT WED MAY 06 2015

NOTE: "FAIR" INDICATES FEW OR NO CLOUDS BELOW 12,000 FEET WITH NO
       SIGNIFICANT WEATHER AND/OR OBSTRUCTIONS TO VISIBILITY.
       CURRENT SKY AND/OR WEATHER CONDITIONS ARE NOT AVAILABLE FOR
       CHILLICOTHE AND FARMINGTON.

MOZ001>031-035>038-043-044-053-054-062100-
...NORTHERN AND WESTERN MISSOURI...

CITY           SKY/WX    TMP DP  RH WIND       PRES   REMARKS
KANSAS CTY INT PTSUNNY   73  60  63 S25       29.93F
KANSAS C DTWN  PTSUNNY   73  57  57 S17G35    29.94S
LEE`S SUMMIT   CLOUDY    70  60  70 S13G23    29.97R
ST JOSEPH      CLOUDY    73  60  63 S16       29.91F
CHILLICOTHE      N/A     72  60  66 S16G24    29.98F
KIRKSVILLE     CLOUDY    74  60  61 SW14G22   30.02F

$$
MOZ066>068-077>081-088>096-101>105-062100-
...SOUTHWEST MISSOURI...

CITY           SKY/WX    TMP DP  RH WIND       PRES   REMARKS
SPRINGFIELD    MOSUNNY   77  61  57 S21G26    30.01F
JOPLIN         SUNNY     78  58  49 S17G31    29.94F

$$
MOZ032>034-039>042-045>050-055>058-069>072-062100-
...CENTRAL MISSOURI...

CITY           SKY/WX    TMP DP  RH WIND       PRES   REMARKS
COLUMBIA       CLOUDY    78  58  49 S9G25     30.02F
JEFFERSON CITY PTSUNNY   80  55  42 S15       30.01F
ROLLA          MOSUNNY   81  56  42 S18G28    30.03F
SEDALIA        LGT RAIN  70  63  78 SE12      30.01F
WHITEMAN AFB   CLOUDY    72  62  70 S16G25    29.99F
WARRENSBURG    CLOUDY    73  59  60 SE16G22   29.98F
OSAGE BEACH    CLOUDY    81  55  41 S10       30.02F

$$
MOZ051-052-059>065-062100-
...EAST CENTRAL MISSOURI...

CITY           SKY/WX    TMP DP  RH WIND       PRES   REMARKS
ST LOUIS INTL  MOSUNNY   86  49  27 S17G25    30.06F
SPIRIT OF STL  MOSUNNY   84  52  33 SE13G20   30.03F
ST CHARLES     MOSUNNY   85  53  33 S20       30.03F

$$
MOZ072>076-082>087-097>100-106>115-062100-
...SOUTH CENTRAL AND SOUTHEAST MISSOURI...

CITY           SKY/WX    TMP DP  RH WIND       PRES   REMARKS
CAPE GIRARDEAU MOSUNNY   83  55  38 S12       30.08F
FARMINGTON     MOSUNNY   81  54  39 S10       30.12F
POPLAR BLUFF   SUNNY     84  50  30 S12       30.06F
WEST PLAINS    MOSUNNY   78  54  43 S15G22    30.07F

$$



USA.gov is the U.S. government's official web portal to all federal, state and local government web resources and services.